Location: Avebury
(53.1487°N, 106.9774°W)
Time: 11:36:44
(UTC+00:00)

Envisat - Pass Details

Date: 26 January 2022
Orbit: 764 x 765 km, 98.2° (Epoch: 22 May)

Event Time Altitude Azimuth Distance (km) Brightness Sun altitude
Rises 10:56:37 0° 24° (NNE) 3,244 6.7 -36.1°
Reaches altitude 10° 10:59:28 10° 40° (NE) 2,313 6.0 -35.7°
Maximum altitude 11:03:21 22° 89° (E) 1,646 5.2 -35.2°
Drops below altitude 10° 11:07:13 10° 139° (SE) 2,300 5.7 -34.6°
Sets 11:10:02 0° 155° (SSE) 3,221 6.3 -34.2°
